CDT,Max TemperatureF,Mean TemperatureF,Min TemperatureF,Max Dew PointF,MeanDew PointF,Min DewpointF,Max Humidity, Mean Humidity, Min Humidity, Max Sea Level PressureIn, Mean Sea Level PressureIn, Min Sea Level PressureIn, Max VisibilityMiles, Mean VisibilityMiles, Min VisibilityMiles, Max Wind SpeedMPH, Mean Wind SpeedMPH, Max Gust SpeedMPH,PrecipitationIn, CloudCover, Events, WindDirDegrees
2012-8-1,95,83,70,71,66,59,79,60,41,29.99,29.88,29.79,10,10,6,20,9,33,0.39,1,Rain-Thunderstorm,161
2012-8-2,91,80,68,72,68,66,90,69,47,29.97,29.86,29.80,10,10,2,22,6,29,0.07,1,Rain-Thunderstorm,88
2012-8-3,96,83,70,72,68,64,100,68,36,29.88,29.78,29.70,10,9,4,20,9,24,0.00,0,,141
2012-8-4,84,72,60,67,55,43,84,54,24,30.13,29.97,29.80,10,10,10,28,12,37,0.05,2,Rain-Thunderstorm,351
2012-8-5,88,72,55,62,55,52,86,59,31,30.27,30.18,30.11,10,10,10,13,5,16,0.00,0,,226
2012-8-6,96,81,66,64,57,51,66,48,30,30.12,30.02,29.92,10,10,10,20,13,26,0.00,0,,176
2012-8-7,97,80,63,67,62,57,87,60,33,30.02,29.94,29.91,10,10,10,17,6,22,0.00,0,,230
2012-8-8,103,85,67,67,60,41,87,50,13,29.99,29.93,29.87,10,10,10,26,9,33,0.00,0,,292
2012-8-9,85,74,63,65,59,52,93,63,32,30.11,30.06,30.01,10,10,10,16,9,26,0.00,0,,9
2012-8-10,82,69,55,57,53,46,93,62,30,30.16,30.10,30.05,10,10,10,12,6,16,0.00,0,,60
2012-8-11,81,70,59,61,55,53,78,60,42,30.10,29.99,29.89,10,10,10,17,9,22,T,3,Rain-Thunderstorm,136
2012-8-12,83,71,58,61,57,54,93,67,40,30.09,29.95,29.87,10,10,10,26,13,32,0.00,2,,335
2012-8-13,80,70,60,54,53,49,78,56,33,30.17,30.09,30.02,10,10,10,22,9,28,0.00,4,,24
2012-8-14,86,75,63,61,59,55,84,64,44,30.04,29.94,29.83,10,10,10,23,13,28,0.00,2,,188
2012-8-15,95,79,62,65,61,54,93,65,36,29.92,29.78,29.69,10,10,6,33,15,40,0.00,0,,187
2012-8-16,76,64,52,54,48,39,78,54,29,30.16,30.09,29.95,10,10,10,22,11,30,T,1,Rain,360
2012-8-17,80,63,45,47,43,37,93,58,23,30.17,30.12,30.03,10,10,10,10,4,14,0.00,0,,155
2012-8-18,80,66,51,56,52,44,93,66,39,30.08,29.99,29.88,10,10,10,23,8,31,0.06,3,Rain-Thunderstorm,129
2012-8-19,81,64,46,54,48,41,100,64,27,30.16,30.10,30.01,10,6,0,10,6,14,0.00,2,Fog,287
2012-8-20,89,71,53,55,46,41,77,49,21,30.05,29.99,29.93,10,10,10,20,8,25,0.00,0,,230
2012-8-21,95,75,55,54,51,46,80,51,22,30.01,29.97,29.92,10,10,10,21,9,29,0.00,0,,187
2012-8-22,94,80,65,61,52,46,59,41,23,29.98,29.91,29.84,10,10,10,26,15,37,0.00,0,,194
2012-8-23,87,78,69,66,62,53,79,65,51,29.88,29.86,29.82,10,10,10,21,13,26,0.00,0,,186
2012-8-24,79,73,67,68,65,62,93,78,62,29.90,29.84,29.80,10,7,2,20,11,24,0.01,7,Rain,155
2012-8-25,76,70,64,68,66,64,100,87,74,29.93,29.86,29.77,10,8,2,18,6,23,0.36,6,Rain-Thunderstorm,183
2012-8-26,86,74,62,68,65,63,100,74,48,30.08,30.01,29.93,10,4,0,9,4,14,0.00,4,Fog,335
2012-8-27,91,78,65,67,66,63,93,67,41,30.17,30.10,30.06,10,9,5,16,8,23,0.00,0,,177
2012-8-28,97,84,70,67,59,49,84,54,23,30.13,30.02,29.91,10,10,10,25,15,32,0.00,0,,195
2012-8-29,99,84,69,53,49,41,53,34,14,29.93,29.88,29.82,10,10,10,26,16,33,0.00,0,,206
2012-8-30,101,82,62,57,53,48,68,43,18,29.91,29.86,29.83,10,10,10,21,12,26,0.00,0,,197
2012-8-31,96,77,57,65,56,50,87,54,21,30.00,29.96,29.92,10,10,10,12,4,16,0.00,0,,95